Location: Bouchavesnes-Bergen
(49.9859°N, 2.9203°E)
Time: 23:23:30
(UTC+00:00)

IDEFIX/ARIANE 42P - Pass Details

Date: 28 June 2021
Orbit: 784 x 803 km, 98.4° (Epoch: 30 July)

Event Time Altitude Azimuth Distance (km) Brightness Sun altitude
Rises 01:11:21 0° 27° (NNE) 3,309 7.6 -14.6°
Reaches altitude 10° 01:14:32 10° 47° (NE) 2,369 6.0 -14.5°
Maximum altitude 01:17:54 17° 88° (E) 1,909 4.8 -14.3°
Drops below altitude 10° 01:21:15 10° 128° (SE) 2,350 4.8 -14.1°
Enters shadow 01:23:51 - 146° (SE) 3,100 5.3 -13.9°
